Time,TemperatureF,DewpointF,PressureIn,WindDirection,WindDirectionDegrees,WindSpeedMPH,WindSpeedGustMPH,Humidity,HourlyPrecipIn,Conditions,Clouds,dailyrainin,SoftwareType,DateUTC
2013-03-17 00:02:00,30.0,22.0,30.14,NW,310,3.0,9.0,73,0.00,,,0.00,,2013-03-17 05:02:00,
2013-03-17 00:12:00,30.0,22.0,30.14,NW,310,3.0,9.0,73,0.00,,,0.00,,2013-03-17 05:12:00,
2013-03-17 00:22:00,30.0,22.0,30.14,NW,310,3.0,9.0,73,0.00,,,0.00,,2013-03-17 05:22:00,
2013-03-17 00:32:00,29.0,21.0,30.15,NW,304,2.0,8.0,72,0.00,,,0.00,,2013-03-17 05:32:00,
2013-03-17 00:42:00,29.0,21.0,30.15,NW,304,2.0,8.0,72,0.00,,,0.00,,2013-03-17 05:42:00,
2013-03-17 00:52:00,29.0,21.0,30.15,NW,304,2.0,8.0,72,0.00,,,0.00,,2013-03-17 05:52:00,
2013-03-17 01:02:00,29.0,21.0,30.15,NNW,327,2.0,7.0,73,0.00,,,0.00,,2013-03-17 06:02:00,
2013-03-17 01:12:00,29.0,21.0,30.15,NNW,327,2.0,7.0,73,0.00,,,0.00,,2013-03-17 06:12:00,
2013-03-17 01:22:00,29.0,21.0,30.15,WNW,302,3.0,8.0,73,0.00,,,0.00,,2013-03-17 06:22:00,
2013-03-17 01:32:00,29.0,22.0,30.15,WNW,282,1.0,9.0,74,0.00,,,0.00,,2013-03-17 06:32:00,
2013-03-17 01:42:00,29.0,22.0,30.15,WNW,282,1.0,9.0,74,0.00,,,0.00,,2013-03-17 06:42:00,
2013-03-17 01:52:00,29.0,22.0,30.16,WNW,292,4.0,12.0,76,0.00,,,0.00,,2013-03-17 06:52:00,
2013-03-17 02:02:00,28.0,21.0,30.15,NNW,328,4.0,12.0,74,0.00,,,0.00,,2013-03-17 07:02:00,
2013-03-17 02:12:00,28.0,21.0,30.15,NNW,328,4.0,12.0,74,0.00,,,0.00,,2013-03-17 07:12:00,
2013-03-17 02:22:00,28.0,21.0,30.16,North,0,1.0,9.0,74,0.00,,,0.00,,2013-03-17 07:22:00,
2013-03-17 02:32:00,27.0,20.0,30.16,West,275,3.0,10.0,73,0.00,,,0.00,,2013-03-17 07:32:00,
2013-03-17 02:42:00,27.0,20.0,30.16,West,275,3.0,10.0,73,0.00,,,0.00,,2013-03-17 07:42:00,
2013-03-17 02:52:00,27.0,19.0,30.16,NW,325,2.0,9.0,72,0.00,,,0.00,,2013-03-17 07:52:00,
2013-03-17 03:02:00,27.0,19.0,30.16,NNE,30,2.0,9.0,72,0.00,,,0.00,,2013-03-17 08:02:00,
2013-03-17 03:13:00,26.0,18.0,30.16,North,0,3.0,10.0,70,0.00,,,0.00,,2013-03-17 08:13:00,
2013-03-17 03:22:00,26.0,18.0,30.16,North,0,3.0,10.0,70,0.00,,,0.00,,2013-03-17 08:22:00,
2013-03-17 03:32:00,26.0,18.0,30.16,North,0,3.0,10.0,70,0.00,,,0.00,,2013-03-17 08:32:00,
2013-03-17 03:42:00,26.0,18.0,30.16,North,0,3.0,10.0,70,0.00,,,0.00,,2013-03-17 08:42:00,
2013-03-17 03:52:00,26.0,18.0,30.16,NNE,24,4.0,10.0,72,0.00,,,0.00,,2013-03-17 08:52:00,
2013-03-17 04:03:00,25.0,17.0,30.16,North,5,6.0,12.0,72,0.00,,,0.00,,2013-03-17 09:03:00,
2013-03-17 04:12:00,25.0,17.0,30.16,North,5,6.0,12.0,72,0.00,,,0.00,,2013-03-17 09:12:00,
2013-03-17 04:22:00,25.0,17.0,30.16,North,5,3.0,14.0,71,0.00,,,0.00,,2013-03-17 09:22:00,
2013-03-17 04:32:00,25.0,17.0,30.16,North,5,3.0,14.0,71,0.00,,,0.00,,2013-03-17 09:32:00,
2013-03-17 04:43:00,25.0,17.0,30.16,North,5,3.0,14.0,71,0.00,,,0.00,,2013-03-17 09:43:00,
2013-03-17 04:53:00,25.0,17.0,30.16,North,5,3.0,14.0,71,0.00,,,0.00,,2013-03-17 09:53:00,
2013-03-17 05:03:00,24.0,16.0,30.15,NE,37,5.0,14.0,70,0.00,,,0.00,,2013-03-17 10:03:00,
2013-03-17 05:13:00,24.0,16.0,30.15,NE,37,5.0,14.0,70,0.00,,,0.00,,2013-03-17 10:13:00,
2013-03-17 05:23:00,24.0,15.0,30.15,NNE,14,5.0,12.0,69,0.00,,,0.00,,2013-03-17 10:23:00,
2013-03-17 05:33:00,23.0,15.0,30.16,NNE,26,3.0,9.0,71,0.00,,,0.00,,2013-03-17 10:33:00,
2013-03-17 05:42:00,23.0,15.0,30.16,NNE,26,3.0,9.0,71,0.00,,,0.00,,2013-03-17 10:42:00,
2013-03-17 05:52:00,23.0,15.0,30.17,NE,36,5.0,9.0,71,0.00,,,0.00,,2013-03-17 10:52:00,
2013-03-17 06:02:00,23.0,15.0,30.18,NNE,21,5.0,9.0,71,0.00,,,0.00,,2013-03-17 11:02:00,
2013-03-17 06:12:00,23.0,15.0,30.18,NNE,21,5.0,9.0,71,0.00,,,0.00,,2013-03-17 11:12:00,
2013-03-17 06:22:00,23.0,15.0,30.19,NNE,24,5.0,8.0,71,0.00,,,0.00,,2013-03-17 11:22:00,
2013-03-17 06:32:00,22.0,15.0,30.19,North,355,3.0,5.0,73,0.00,,,0.00,,2013-03-17 11:32:00,
2013-03-17 06:42:00,22.0,15.0,30.19,North,355,3.0,5.0,73,0.00,,,0.00,,2013-03-17 11:42:00,
2013-03-17 06:52:00,22.0,15.0,30.19,North,355,3.0,5.0,73,0.00,,,0.00,,2013-03-17 11:52:00,
2013-03-17 07:02:00,22.0,15.0,30.21,NNE,28,2.0,3.0,75,0.00,,,0.00,,2013-03-17 12:02:00,
2013-03-17 07:12:00,22.0,15.0,30.21,NNE,28,2.0,3.0,75,0.00,,,0.00,,2013-03-17 12:12:00,
2013-03-17 07:22:00,22.0,15.0,30.21,NNE,12,2.0,3.0,75,0.00,,,0.00,,2013-03-17 12:22:00,
2013-03-17 07:32:00,21.0,15.0,30.22,NE,35,2.0,3.0,76,0.00,,,0.00,,2013-03-17 12:32:00,
2013-03-17 07:42:00,21.0,15.0,30.22,NE,35,2.0,3.0,76,0.00,,,0.00,,2013-03-17 12:42:00,
2013-03-17 07:52:00,21.0,15.0,30.22,NE,35,3.0,5.0,76,0.00,,,0.00,,2013-03-17 12:52:00,
2013-03-17 08:02:00,22.0,16.0,30.21,NE,40,4.0,7.0,76,0.00,,,0.00,,2013-03-17 13:02:00,
2013-03-17 08:12:00,22.0,16.0,30.21,NE,40,4.0,7.0,76,0.00,,,0.00,,2013-03-17 13:12:00,
2013-03-17 08:22:00,22.0,16.0,30.21,NE,40,4.0,7.0,76,0.00,,,0.00,,2013-03-17 13:22:00,
2013-03-17 08:32:00,23.0,16.0,30.22,ENE,63,5.0,9.0,74,0.00,,,0.00,,2013-03-17 13:32:00,
2013-03-17 08:42:00,23.0,16.0,30.22,ENE,63,5.0,9.0,74,0.00,,,0.00,,2013-03-17 13:42:00,
2013-03-17 08:52:00,24.0,16.0,30.22,ENE,75,5.0,13.0,72,0.00,,,0.00,,2013-03-17 13:52:00,
2013-03-17 09:02:00,24.0,16.0,30.23,NE,47,5.0,12.0,71,0.00,,,0.00,,2013-03-17 14:02:00,
2013-03-17 09:12:00,24.0,16.0,30.23,NE,47,5.0,12.0,71,0.00,,,0.00,,2013-03-17 14:12:00,
2013-03-17 09:22:00,25.0,17.0,30.23,NNE,27,6.0,12.0,71,0.00,,,0.00,,2013-03-17 14:22:00,
2013-03-17 09:32:00,26.0,18.0,30.23,ENE,69,6.0,12.0,71,0.00,,,0.00,,2013-03-17 14:32:00,
2013-03-17 09:42:00,26.0,18.0,30.23,ENE,69,6.0,12.0,71,0.00,,,0.00,,2013-03-17 14:42:00,
2013-03-17 09:52:00,26.0,18.0,30.23,ENE,69,6.0,12.0,71,0.00,,,0.00,,2013-03-17 14:52:00,
2013-03-17 10:02:00,27.0,19.0,30.23,NE,38,5.0,13.0,71,0.00,,,0.00,,2013-03-17 15:02:00,
2013-03-17 10:12:00,27.0,19.0,30.23,NE,38,5.0,13.0,71,0.00,,,0.00,,2013-03-17 15:12:00,
2013-03-17 10:23:00,27.0,19.0,30.23,NE,54,3.0,12.0,70,0.00,,,0.00,,2013-03-17 15:23:00,
2013-03-17 10:33:00,28.0,20.0,30.24,NE,55,6.0,12.0,70,0.00,,,0.00,,2013-03-17 15:33:00,
2013-03-17 10:42:00,28.0,20.0,30.24,NE,55,6.0,12.0,70,0.00,,,0.00,,2013-03-17 15:42:00,
2013-03-17 10:52:00,28.0,20.0,30.23,ENE,58,6.0,13.0,71,0.00,,,0.00,,2013-03-17 15:52:00,
2013-03-17 11:03:00,29.0,21.0,30.23,ESE,103,5.0,12.0,71,0.00,,,0.00,,2013-03-17 16:03:00,
2013-03-17 11:12:00,29.0,21.0,30.23,ESE,103,5.0,12.0,71,0.00,,,0.00,,2013-03-17 16:12:00,
2013-03-17 11:22:00,30.0,21.0,30.22,ENE,78,6.0,13.0,69,0.00,,,0.00,,2013-03-17 16:22:00,
2013-03-17 11:33:00,30.0,21.0,30.22,East,89,7.0,16.0,68,0.00,,,0.00,,2013-03-17 16:33:00,
2013-03-17 11:42:00,30.0,21.0,30.22,East,89,7.0,16.0,68,0.00,,,0.00,,2013-03-17 16:42:00,
2013-03-17 11:52:00,31.0,22.0,30.22,ENE,58,7.0,14.0,69,0.00,,,0.00,,2013-03-17 16:52:00,
2013-03-17 12:02:00,31.0,22.0,30.22,East,86,6.0,14.0,69,0.00,,,0.00,,2013-03-17 17:02:00,
2013-03-17 12:12:00,31.0,22.0,30.22,East,86,6.0,14.0,69,0.00,,,0.00,,2013-03-17 17:12:00,
2013-03-17 12:22:00,31.0,22.0,30.21,ENE,60,6.0,13.0,69,0.00,,,0.00,,2013-03-17 17:22:00,
2013-03-17 12:33:00,31.0,22.0,30.21,East,90,5.0,14.0,70,0.00,,,0.00,,2013-03-17 17:33:00,
2013-03-17 12:42:00,31.0,22.0,30.21,East,90,5.0,14.0,70,0.00,,,0.00,,2013-03-17 17:42:00,
2013-03-17 12:52:00,31.0,22.0,30.21,ENE,73,8.0,15.0,70,0.00,,,0.00,,2013-03-17 17:52:00,
2013-03-17 13:02:00,32.0,23.0,30.20,East,91,6.0,12.0,68,0.00,,,0.00,,2013-03-17 18:02:00,
2013-03-17 13:12:00,32.0,23.0,30.20,East,91,6.0,12.0,68,0.00,,,0.00,,2013-03-17 18:12:00,
2013-03-17 13:22:00,33.0,24.0,30.19,NE,55,5.0,15.0,70,0.00,,,0.00,,2013-03-17 18:22:00,
2013-03-17 13:32:00,32.0,23.0,30.18,East,87,7.0,16.0,68,0.00,,,0.00,,2013-03-17 18:32:00,
2013-03-17 13:42:00,32.0,23.0,30.18,East,87,7.0,16.0,68,0.00,,,0.00,,2013-03-17 18:42:00,
2013-03-17 13:52:00,32.0,22.0,30.18,East,86,8.0,13.0,67,0.00,,,0.00,,2013-03-17 18:52:00,
2013-03-17 14:02:00,32.0,22.0,30.18,East,86,8.0,13.0,67,0.00,,,0.00,,2013-03-17 19:02:00,
2013-03-17 14:12:00,32.0,22.0,30.18,East,86,8.0,13.0,67,0.00,,,0.00,,2013-03-17 19:12:00,
2013-03-17 14:22:00,33.0,24.0,30.15,East,82,5.0,20.0,68,0.00,,,0.00,,2013-03-17 19:22:00,
2013-03-17 14:33:00,34.0,24.0,30.15,ENE,75,7.0,13.0,66,0.00,,,0.00,,2013-03-17 19:33:00,
2013-03-17 14:42:00,34.0,24.0,30.15,ENE,75,7.0,13.0,66,0.00,,,0.00,,2013-03-17 19:42:00,
2013-03-17 14:53:00,33.0,23.0,30.15,East,97,10.0,18.0,65,0.00,,,0.00,,2013-03-17 19:53:00,
2013-03-17 15:02:00,34.0,23.0,30.14,ENE,67,7.0,14.0,65,0.00,,,0.00,,2013-03-17 20:02:00,
2013-03-17 15:12:00,34.0,23.0,30.14,ENE,67,7.0,14.0,65,0.00,,,0.00,,2013-03-17 20:12:00,
2013-03-17 15:22:00,34.0,24.0,30.13,East,89,7.0,15.0,66,0.00,,,0.00,,2013-03-17 20:22:00,
2013-03-17 15:33:00,33.0,23.0,30.14,East,85,5.0,18.0,66,0.00,,,0.00,,2013-03-17 20:33:00,
2013-03-17 15:42:00,33.0,23.0,30.14,East,85,5.0,18.0,66,0.00,,,0.00,,2013-03-17 20:42:00,
2013-03-17 15:52:00,33.0,23.0,30.14,East,85,5.0,18.0,66,0.00,,,0.00,,2013-03-17 20:52:00,
2013-03-17 16:02:00,33.0,23.0,30.13,East,82,8.0,14.0,65,0.00,,,0.00,,2013-03-17 21:02:00,
2013-03-17 16:12:00,33.0,23.0,30.13,East,82,8.0,14.0,65,0.00,,,0.00,,2013-03-17 21:12:00,
2013-03-17 16:22:00,33.0,23.0,30.13,East,82,8.0,14.0,65,0.00,,,0.00,,2013-03-17 21:22:00,
2013-03-17 16:33:00,32.0,23.0,30.12,ESE,108,8.0,15.0,68,0.00,,,0.00,,2013-03-17 21:33:00,
2013-03-17 16:43:00,32.0,23.0,30.12,ESE,108,8.0,15.0,68,0.00,,,0.00,,2013-03-17 21:43:00,
2013-03-17 16:52:00,32.0,23.0,30.12,ESE,120,8.0,14.0,68,0.00,,,0.00,,2013-03-17 21:52:00,
2013-03-17 17:03:00,32.0,23.0,30.12,East,92,7.0,15.0,68,0.00,,,0.00,,2013-03-17 22:03:00,
2013-03-17 17:12:00,31.0,22.0,30.11,ENE,62,7.0,12.0,68,0.00,,,0.00,,2013-03-17 22:12:00,
2013-03-17 17:23:00,31.0,22.0,30.11,ENE,62,7.0,12.0,68,0.00,,,0.00,,2013-03-17 22:23:00,
2013-03-17 17:33:00,31.0,22.0,30.10,NE,53,6.0,14.0,68,0.00,,,0.00,,2013-03-17 22:33:00,
2013-03-17 17:42:00,31.0,22.0,30.10,NE,53,6.0,14.0,68,0.00,,,0.00,,2013-03-17 22:42:00,
2013-03-17 17:52:00,31.0,22.0,30.10,ESE,102,6.0,12.0,68,0.00,,,0.00,,2013-03-17 22:52:00,
2013-03-17 18:02:00,31.0,22.0,30.10,East,93,7.0,13.0,70,0.00,,,0.00,,2013-03-17 23:02:00,
2013-03-17 18:12:00,31.0,22.0,30.10,East,93,7.0,13.0,70,0.00,,,0.00,,2013-03-17 23:12:00,
2013-03-17 18:22:00,31.0,22.0,30.10,East,93,7.0,13.0,70,0.00,,,0.00,,2013-03-17 23:22:00,
2013-03-17 18:33:00,30.0,22.0,30.10,East,85,5.0,12.0,72,0.00,,,0.00,,2013-03-17 23:33:00,
2013-03-17 18:42:00,30.0,22.0,30.10,East,85,5.0,12.0,72,0.00,,,0.00,,2013-03-17 23:42:00,
2013-03-17 18:53:00,30.0,22.0,30.09,ENE,76,6.0,12.0,73,0.00,,,0.00,,2013-03-17 23:53:00,
2013-03-17 19:12:00,30.0,23.0,30.09,ENE,57,5.0,9.0,75,0.00,,,0.00,,2013-03-18 00:12:00,
2013-03-17 19:22:00,30.0,23.0,30.08,ENE,76,5.0,12.0,76,0.00,,,0.00,,2013-03-18 00:22:00,
2013-03-17 19:33:00,30.0,23.0,30.09,East,94,5.0,13.0,76,0.00,,,0.00,,2013-03-18 00:33:00,
2013-03-17 19:42:00,30.0,23.0,30.09,East,94,5.0,13.0,76,0.00,,,0.00,,2013-03-18 00:42:00,
2013-03-17 19:52:00,30.0,24.0,30.07,East,84,6.0,13.0,77,0.00,,,0.00,,2013-03-18 00:52:00,
2013-03-17 20:02:00,30.0,24.0,30.07,East,89,5.0,9.0,79,0.00,,,0.00,,2013-03-18 01:02:00,
2013-03-17 20:12:00,30.0,24.0,30.07,East,89,5.0,9.0,79,0.00,,,0.00,,2013-03-18 01:12:00,
2013-03-17 20:22:00,30.0,24.0,30.08,ENE,75,5.0,14.0,79,0.00,,,0.00,,2013-03-18 01:22:00,
2013-03-17 20:32:00,30.0,24.0,30.07,ESE,102,6.0,13.0,79,0.00,,,0.00,,2013-03-18 01:32:00,
2013-03-17 20:42:00,30.0,24.0,30.07,ESE,102,6.0,13.0,79,0.00,,,0.00,,2013-03-18 01:42:00,
2013-03-17 20:52:00,29.0,23.0,30.07,ESE,103,6.0,15.0,79,0.00,,,0.00,,2013-03-18 01:52:00,
2013-03-17 21:02:00,29.0,23.0,30.06,ESE,102,8.0,14.0,79,0.00,,,0.00,,2013-03-18 02:02:00,
2013-03-17 21:12:00,29.0,23.0,30.06,ESE,102,8.0,14.0,79,0.00,,,0.00,,2013-03-18 02:12:00,
2013-03-17 21:22:00,29.0,24.0,30.06,East,86,5.0,13.0,80,0.00,,,0.00,,2013-03-18 02:22:00,
2013-03-17 21:32:00,29.0,24.0,30.05,NE,51,6.0,12.0,80,0.00,,,0.00,,2013-03-18 02:32:00,
2013-03-17 21:42:00,29.0,24.0,30.05,NE,51,6.0,12.0,80,0.00,,,0.00,,2013-03-18 02:42:00,
2013-03-17 21:52:00,29.0,24.0,30.04,East,93,6.0,13.0,80,0.00,,,0.00,,2013-03-18 02:52:00,
2013-03-17 22:03:00,29.0,24.0,30.04,East,92,6.0,12.0,80,0.00,,,0.00,,2013-03-18 03:03:00,
2013-03-17 22:11:00,29.0,24.0,30.04,East,92,6.0,12.0,80,0.00,,,0.00,,2013-03-18 03:11:00,
2013-03-17 22:22:00,29.0,24.0,30.03,ENE,63,5.0,12.0,81,0.00,,,0.00,,2013-03-18 03:22:00,
2013-03-17 22:33:00,29.0,24.0,30.02,East,94,6.0,12.0,81,0.00,,,0.00,,2013-03-18 03:33:00,
2013-03-17 22:42:00,29.0,24.0,30.02,East,94,6.0,12.0,81,0.00,,,0.00,,2013-03-18 03:42:00,
2013-03-17 22:53:00,29.0,24.0,30.02,East,82,6.0,9.0,82,0.00,,,0.00,,2013-03-18 03:53:00,
2013-03-17 23:03:00,29.0,25.0,30.01,ESE,103,5.0,8.0,83,0.00,,,0.00,,2013-03-18 04:03:00,
2013-03-17 23:13:00,29.0,25.0,30.01,ESE,103,5.0,8.0,83,0.00,,,0.00,,2013-03-18 04:13:00,
2013-03-17 23:23:00,29.0,25.0,30.01,East,100,3.0,8.0,83,0.00,,,0.00,,2013-03-18 04:23:00,
2013-03-17 23:33:00,29.0,25.0,30.00,ENE,74,4.0,8.0,84,0.00,,,0.00,,2013-03-18 04:33:00,
2013-03-17 23:42:00,29.0,25.0,30.00,ENE,74,4.0,8.0,84,0.00,,,0.00,,2013-03-18 04:42:00,
2013-03-17 23:52:00,29.0,25.0,30.00,NE,42,2.0,6.0,84,0.00,,,0.00,,2013-03-18 04:52:00,